Location: Sawyer Lake
(45.2517°N, 88.7550°W)
Time: 05:29:56
(UTC-05:00)

Daily predictions for brighter satellites

Satellite Brightness Start Highest point End
(mag) Time Altitude Azimuth Time Altitude Azimuth Time Altitude Azimuth
Cosmos 1869 4.4 00:02:52 10° NNW 00:06:26 33° W 00:07:20 30° WSW
Cosmos 1933 3.3 00:02:47 10° N 00:06:55 80° E 00:07:32 62° SSE
In-Cosmos 22 Rocket 4.3 00:07:21 41° SSE 00:09:10 63° E 00:14:44 10° NNE
ALOS 2 2.7 00:09:10 49° SE 00:10:11 68° ENE 00:14:34 10° N
Cosmos 1777 Rocket 4.2 00:11:50 44° SSE 00:13:04 55° ESE 00:18:10 10° NNE
Cosmos 2034 Rocket 4.4 00:08:55 10° NNW 00:15:04 54° W 00:18:00 30° SSW
Cosmos 1315 Rocket 3.0 00:17:58 53° ESE 00:18:09 54° E 00:22:00 10° NNE
Cosmos 1892 3.3 00:19:18 42° E 00:19:24 42° E 00:23:07 10° NNE
Cosmos 1680 Rocket 4.4 00:14:41 10° N 00:19:42 42° ENE 00:22:09 26° ESE
Cosmos 1400 Rocket 2.9 00:19:41 55° SW 00:20:29 72° WNW 00:24:39 10° N
CZ-2C R/B 2.5 00:15:23 10° NNE 00:20:43 79° ESE 00:22:23 45° S
Cosmos 2346 Rocket 4.4 00:24:41 39° S 00:27:07 84° E 00:33:12 10° N
IKONOS-2 4.4 00:27:14 62° S 00:27:57 88° WSW 00:32:14 10° NNW
Meteor 2-10 Rocket 3.7 00:24:40 10° NNW 00:30:01 67° W 00:31:51 42° SSW
Cosmos 1862 Rocket 3.7 00:26:48 10° NNW 00:31:08 61° W 00:31:56 51° SW
BREEZE-M (TANK) 4.2 00:11:40 10° WSW 00:31:18 86° NNW 00:35:38 10° ENE
Cosmos 1782 4.4 00:27:55 10° NNE 00:31:21 26° ENE 00:32:17 23° E
Cosmos 1933 Rocket 3.7 00:32:52 50° SW 00:33:49 66° W 00:38:10 10° N
Cosmos 968 Rocket 4.3 00:32:52 24° SW 00:35:47 48° WNW 00:40:54 10° NNE
CZ-4C R/B 3.7 00:38:28 41° ENE 00:38:28 41° ENE 00:41:29 10° N
SL-27 R/B 2.5 00:35:40 10° NNW 00:38:45 67° NNE 00:38:45 67° NNE
Cosmos 1606 4.2 00:36:02 10° NNE 00:39:20 26° ENE 00:40:03 24° E
Cosmos 1346 Rocket 3.0 00:36:58 10° N 00:40:48 54° ENE 00:41:09 52° E
Genesis I 3.4 00:43:09 57° E 00:43:09 57° E 00:46:44 10° NE
Cosmos 1833 Rocket 3.7 00:41:55 10° NNW 00:47:17 41° NE 00:50:52 20° ESE
Cosmos 2278 Rocket 2.2 00:47:30 46° S 00:49:09 69° ESE 00:54:47 10° NNE
CZ-4C R/B 3.0 00:45:00 14° WSW 00:49:27 51° NW 00:55:27 10° NNE
Cosmos 1634 Rocket 4.0 00:44:17 10° NNW 00:50:28 71° W 00:52:47 40° SSW
Cosmos 1461 2.6 00:52:36 71° ESE 00:52:36 71° ESE 00:56:34 10° NE
Cosmos 1844 4.1 00:54:00 29° SW 00:56:49 59° WNW 01:02:22 10° NNE
Cosmos 1408 3.6 01:00:48 33° E 01:00:48 33° E 01:04:02 10° NNE
Cosmos 1703 Rocket 3.6 00:58:37 10° NNW 01:03:06 74° W 01:03:50 59° SSW
Aureole 1 Rocket 4.5 00:58:11 10° NNW 01:05:12 81° ENE 01:09:52 29° SSE
Cosmos 2221 Rocket 3.5 01:04:16 10° N 01:08:44 89° W 01:09:28 62° S
CZ-2C R/B 4.4 01:09:58 27° SW 01:11:42 32° W 01:16:44 10° NNW
Okean 1-7 2.9 01:08:23 10° N 01:12:44 85° W 01:13:24 64° S
Cosmos 2180 Rocket 4.5 01:07:01 10° N 01:13:23 86° E 01:16:01 39° S
Landsat 5 3.5 01:12:50 57° SE 01:13:35 73° ENE 01:17:40 10° N
CZ-4B R/B 1.5 01:13:48 74° E 01:13:49 74° ENE 01:17:24 10° N
Cosmos 2297 4.1 01:12:24 39° SSE 01:13:54 49° ESE 01:19:21 10° NE
Cosmos 1825 2.6 01:14:15 48° ESE 01:14:25 48° E 01:18:06 10° NNE
ATLAS 3B R/B 3.5 01:12:01 31° SSE 01:14:27 39° ESE 01:21:01 10° NE
Timation 1 Rocket 4.2 01:13:54 41° SSW 01:16:06 85° ESE 01:22:07 10° NNE
SAR-Lupe-2 3.4 01:17:16 88° W 01:17:16 88° W 01:20:52 10° NNW
BREEZE-M DEB 3.3 01:11:55 10° WSW 01:19:11 63° NNW 01:21:49 10° ENE
Cosmos 923 Rocket 4.4 01:15:28 10° NNW 01:20:27 47° WSW 01:21:28 41° SW
Cosmos 2082 Rocket 2.2 01:15:24 10° NNW 01:21:03 76° ENE 01:23:36 34° SE
CZ-3B DEB 4.1 01:10:48 10° NW 01:23:34 87° NE 01:35:37 10° SE
Aureole 3 4.2 01:24:52 41° SW 01:26:36 61° W 01:31:09 10° N
Cosmos 1869 Rocket 3.7 01:26:35 51° SW 01:27:22 62° W 01:31:41 10° N
COSMOS 2487 3.0 01:24:24 10° N 01:27:53 50° ENE 01:28:20 46° E
Exosat Rocket 4.3 01:26:16 10° NNW 01:31:47 66° ENE 01:36:53 20° SE
Cosmos 1844 Rocket 4.4 01:30:40 10° WSW 01:35:16 26° NW 01:39:54 10° N
Cosmos 2298 Rocket 4.4 01:36:41 39° SSE 01:38:14 53° ESE 01:43:24 10° NNE
Cosmos 44 3.0 01:39:40 55° SSW 01:40:37 78° ESE 01:45:05 10° NE
Nadezhda 4 Rocket 4.0 01:42:04 37° S 01:44:46 85° E 01:51:06 10° N
Cosmos 2150 Rocket 4.3 01:46:43 39° SSE 01:48:33 58° ESE 01:53:54 10° NNE
Cosmos 1733 Rocket 3.2 01:47:38 47° SSE 01:48:38 63° E 01:52:58 10° NNE
Abrixas 3.7 01:52:02 35° NE 01:52:02 35° NE 01:53:59 10° E
JB-3 4.5 01:47:46 10° N 01:51:58 74° WNW 01:52:49 54° SW
GP-B 4.4 01:48:06 10° NNE 01:52:06 32° E 01:54:01 22° SE
Cosmos 1689 Rocket 3.6 01:53:39 29° WNW 01:53:39 29° WNW 01:55:51 10° NNW
SeaSat 1 3.7 01:53:17 10° ESE 01:57:50 39° NE 02:02:26 10° NNW
Cosmos 1937 Rocket 3.4 01:59:35 42° S 02:01:20 75° ESE 02:06:30 10° NNE
Cosmos 1862 3.3 02:02:53 55° SW 02:03:38 72° W 02:07:41 10° N
Cosmos 1340 2.5 02:03:05 10° NNW 02:06:52 71° W 02:07:19 62° SSW
Cosmos 1782 4.2 02:04:15 10° NNW 02:07:38 26° W 02:07:55 26° W
Cosmos 44 Rocket 3.7 02:05:47 30° WSW 02:07:56 54° NW 02:12:36 10° NNE
Cosmos 990 Rocket 3.9 02:08:36 40° S 02:10:29 77° ESE 02:15:41 10° NNE
Cosmos 1606 4.2 02:11:55 10° NW 02:15:00 23° W 02:15:07 23° W
Meteor 1-27 Rocket 4.0 02:09:25 10° NNW 02:15:14 58° W 02:17:41 34° SSW
Cosmos 1674 Rocket 3.5 02:13:07 10° NNW 02:17:34 74° W 02:18:53 44° S
USA 238 DEB 3.8 02:14:56 31° SSW 02:18:26 70° ESE 02:25:25 10° NE
USA 238 3.8 02:15:03 31° SSW 02:18:33 69° ESE 02:25:31 10° NE
H-2A R/B 3.2 02:14:41 10° N 02:19:03 48° WNW 02:20:31 34° WSW
Cosmos 1898 Rocket 3.9 02:18:58 31° SW 02:21:14 55° WNW 02:26:26 10° NNE
NPP 4.3 02:16:33 10° NNE 02:21:45 47° E 02:24:38 25° SSE
Meteor 2-20 Rocket 4.4 02:18:50 31° S 02:21:58 87° E 02:28:11 10° N
Cosmos 1943 Rocket 4.3 02:19:27 10° SE 02:22:59 17° E 02:26:31 10° ENE
SL-16 R/B 3.5 02:23:01 10° SE 02:28:53 46° ENE 02:34:50 10° N
PSLV R/B 4.1 02:26:32 10° N 02:30:51 51° WNW 02:32:31 33° SW
Cosmos 1833 Rocket 3.5 02:26:06 10° NW 02:31:05 33° WSW 02:32:31 29° SW
Cosmos 1125 Rocket 4.5 02:28:26 22° SSE 02:31:14 39° ESE 02:36:07 10° NE
Sich 1 Rocket 3.7 02:30:31 35° S 02:32:25 77° E 02:37:00 10° NNE
Cosmos 1908 Rocket 3.6 02:31:12 37° S 02:32:56 82° E 02:37:26 10° N
Cosmos 2195 Rocket 4.5 02:30:02 29° S 02:33:25 85° W 02:39:47 10° N
Cosmos 2278 Rocket 4.0 02:29:22 10° W 02:33:47 23° NW 02:38:13 10° N
ADEOS Rocket 3.9 02:27:51 10° NNE 02:35:16 54° E 02:40:21 19° S
S3M 4.4 02:30:06 10° N 02:36:14 61° ENE 02:41:31 14° SSE
ARIANE 5 R/B 4.1 02:32:22 10° NE 02:36:32 26° E 02:40:20 12° SSE
Cosmos 1378 Rocket 3.4 02:32:17 10° N 02:36:38 83° W 02:38:28 34° S
Cosmos 2369 Rocket 3.0 02:37:09 22° SSE 02:40:17 42° ESE 02:45:35 10° NE
Cosmos 1417 Rocket 4.5 02:35:08 10° N 02:41:18 84° E 02:45:47 20° S
Cosmos 1627 Rocket 4.5 02:41:36 28° SSW 02:44:58 72° W 02:51:10 10° N
CBERS-1 4.2 02:41:10 10° NNE 02:46:19 70° ESE 02:49:15 26° S
Cosmos 1633 4.4 02:46:33 15° SE 02:48:48 26° E 02:51:51 10° NNE
Cosmos 1825 4.5 02:49:08 12° W 02:50:18 13° WNW 02:52:12 10° NW
ATLAS CENTAUR R/B 4.5 02:30:17 12° SW 02:51:40 83° NW 02:58:34 10° NE
UNK 4.4 02:47:28 11° SSE 02:51:52 54° ENE 02:56:27 10° N
Okean 2 Rocket 3.6 02:50:56 23° SSE 02:53:31 55° E 02:57:50 10° NNE
NOSS 3-2 (A) 3.7 02:50:20 25° SSW 02:53:50 60° ESE 03:00:19 10° NE
Cosmos 158 Rocket 4.1 02:48:44 10° NNW 02:53:51 72° ENE 02:58:48 10° SSE
IRS-1D 4.4 02:50:04 10° NNE 02:54:52 41° E 02:58:35 16° SSE
NOSS 3-2 (C) 4.0 02:52:12 22° S 02:55:48 47° ESE 03:02:04 10° NE
BREEZE-M DEB (TANK) 2.7 02:55:54 29° SSE 02:56:17 30° SE 03:00:18 10° ENE
Cosmos 1782 Rocket 3.6 02:54:01 29° S 02:56:19 85° E 03:00:49 10° N
Cosmos 405 Rocket 3.6 02:52:35 10° N 02:56:27 48° ENE 02:59:44 13° SSE
Resurs 1-4 Rocket 2.9 02:52:25 10° NNE 02:57:34 46° E 03:01:36 16° SSE
Meteor 2-11 Rocket 4.4 02:52:16 10° N 02:58:29 85° W 03:03:23 17° S
Cosmos 1812 2.6 02:54:54 10° N 02:58:47 80° W 03:00:40 29° S
CENTAUR R/B 4.5 02:56:40 10° SSE 03:00:35 18° ESE 03:04:46 10° ENE
SL-08 R/B 3.3 02:59:36 24° S 03:02:29 65° WSW 03:07:14 10° NNW
Helios 1A Rocket 3.7 02:59:31 10° N 03:03:23 39° WNW 03:05:10 25° WSW
Cosmos 2082 Rocket 3.8 03:01:01 10° WNW 03:04:26 17° W 03:05:25 16° WSW
ATLAS 3B R/B 3.3 02:59:15 17° WSW 03:05:02 56° NW 03:12:02 10° NNE
PSLV R/B 4.4 03:06:47 25° SSE 03:06:47 25° SSE 03:09:27 10° ESE
Cosmos 1269 Rocket 4.0 03:01:29 10° NNW 03:06:50 88° ENE 03:12:08 10° SSE
Cosmos 2026 Rocket 4.3 03:04:48 23° SW 03:08:26 53° WNW 03:14:22 10° N
Meteor 1-18 Rocket 4.1 03:02:59 10° NNW 03:08:34 79° W 03:13:07 16° S
COBE Rocket 3.9 03:03:55 10° NNE 03:08:47 86° ESE 03:12:04 22° S
Cosmos 1553 Rocket 4.1 03:05:44 10° NNW 03:12:06 70° W 03:17:16 16° S
CZ-3B DEB 4.3 03:04:52 10° WNW 03:16:35 44° WSW 03:26:49 10° S
IRS-1C 4.2 03:17:52 10° N 03:23:13 73° WNW 03:27:04 19° SSW
Cosmos 1975 Rocket 3.4 03:19:09 10° NNW 03:23:19 46° W 03:25:52 21° SSW
Cosmos 1346 3.5 03:22:59 10° NNW 03:25:31 34° W 03:26:00 31° WSW
Abrixas 2.2 03:23:31 10° WNW 03:26:11 53° SSW 03:28:51 10° SE
CZ-2D R/B 2.2 03:21:37 10° NNE 03:27:03 81° ESE 03:31:35 15° S
Cosmos 1602 4.4 03:24:25 14° S 03:27:38 54° E 03:31:31 10° NNE
GP-B 4.5 03:25:38 10° NNW 03:29:17 25° WNW 03:31:28 17° WSW
GENESIS II 4.2 03:28:20 23° SW 03:30:49 90° SE 03:34:52 10° NE
Cosmos 2344 3.7 03:26:18 18° SSW 03:32:23 82° SE 03:41:07 10° NE
Meteor 1-25 Rocket 4.5 03:30:50 18° SSW 03:34:52 57° WNW 03:40:28 10° N
SeaSat 1 3.2 03:32:19 17° SSW 03:35:24 33° WSW 03:39:51 10° NW
BREEZE-M R/B 3.4 03:31:24 10° WNW 03:38:13 53° SW 03:41:40 10° SE
Cosmos 1048 Rocket 4.4 03:35:07 10° NNW 03:40:15 46° WSW 03:45:20 10° S
Cosmos 1437 4.4 03:38:52 10° NW 03:41:12 18° W 03:42:00 17° WSW
Cosmos 2151 Rocket 3.6 03:38:38 14° S 03:42:30 90° ESE 03:47:04 10° N
ADEOS II 4.2 03:41:26 10° NE 03:45:33 23° E 03:49:38 10° SE
Cosmos 1536 Rocket 3.6 03:41:39 10° N 03:46:10 86° W 03:50:38 10° S
MOZ.5/SAFIR/RUBIN 5/SL-8 3.9 03:42:53 10° SSE 03:47:38 85° ENE 03:52:23 10° NNW
Geosat 4.0 03:43:13 10° NNE 03:48:17 79° WNW 03:52:35 14° SW
Cosmos 1536 3.8 03:45:02 10° SSE 03:48:49 46° E 03:52:39 10° NNE
Cosmos 1900 4.4 03:48:36 10° NW 03:53:48 86° WSW 03:58:57 10° SSE
Cosmos 1441 Rocket 3.5 03:54:41 10° NNW 03:58:35 52° W 04:02:27 10° S
Meteor 2-4 Rocket 3.8 03:52:59 10° N 03:58:39 80° E 04:04:06 10° SSE
CZ-2D R/B 3.7 03:57:07 10° NNE 04:01:33 79° ESE 04:06:00 10° S
Cosmos 1943 Rocket 2.3 04:00:50 12° SSW 04:06:04 75° WNW 04:11:43 10° NNE
COSMOS 2455 2.9 04:01:07 12° SW 04:06:41 77° WNW 04:12:45 10° NNE
ADEOS 3.9 04:04:22 10° N 04:09:27 52° WNW 04:14:30 10° SW
OE (NEXTSAT) 4.5 04:08:56 11° WSW 04:12:15 64° SSE 04:15:48 10° E
SL-16 R/B 3.3 04:07:08 10° SSW 04:12:39 33° W 04:18:13 10° NNW
Cosmos 2266 Rocket 4.4 04:06:45 10° SSW 04:12:54 49° WNW 04:19:05 10° N
Lacrosse 4 Rocket 3.4 04:09:34 10° NNW 04:13:47 37° NE 04:17:59 10° ESE
Gbstr 26 Del rocket 2.6 04:10:41 11° WSW 04:14:21 83° NNW 04:18:12 10° ENE
Cosmos 2251 Rocket 3.5 04:09:12 10° NNW 04:14:30 79° WSW 04:19:44 10° SSE
ARIANE 5 R/B 3.1 04:11:07 10° N 04:15:48 41° WNW 04:20:28 10° SW
Cosmos 1656 Rocket 3.9 04:14:06 10° SSW 04:19:26 66° ESE 04:24:51 10° NNE
Meteor 1-23 Rocket 4.4 04:13:49 10° N 04:19:40 88° ENE 04:25:26 10° S
Okean 1 Rocket 3.2 04:15:20 10° S 04:19:48 86° E 04:24:16 10° N
ADEOS Rocket 4.4 04:13:40 10° N 04:20:23 36° WNW 04:26:39 10° WSW
Okean 1-7 Rocket 3.9 04:15:57 10° N 04:20:26 71° E 04:24:51 10° SSE
Cosmos 2315 Rocket 4.2 04:16:17 10° NNW 04:22:23 55° W 04:28:26 10° SSW
Cosmos 1633 4.2 04:20:58 10° WSW 04:23:45 21° WNW 04:26:33 10° NNW
Cosmos 2369 Rocket 3.3 04:19:21 10° WSW 04:24:24 33° NW 04:29:32 10° N
UNKNOWN OBJECT B 3.3 04:26:12 10° N 04:29:43 40° WNW 04:33:11 10° SW
Cosmos 1300 Rocket 3.9 04:27:43 10° SSW 04:32:01 50° WNW 04:36:22 10° N
USA 267 3.6 04:25:40 10° NE 04:32:09 60° SE 04:38:35 10° SW
Meteor 1-11 Rocket 4.1 04:29:12 10° SSW 04:34:48 52° WNW 04:40:34 10° N
MOS 1-B 4.5 04:30:09 10° NNE 04:35:58 86° ESE 04:41:46 10° SSW
H-2A R/B 4.1 04:22:30 10° WSW 04:41:35 33° SSW 04:46:25 10° SE
